SKYNET 5D (39034 NORAD) Tracking and Keplerian Element Data

This shows tracking and keplerian element data for the satellite.

Feedback or suggestion? Click here.




ElementValue
Catalog39034
NameSKYNET 5D
Epoch Orbit4174
Epoch Day159.970874
Epoch Year2024
RAAN1.9067
Inclination0.0646
Eccentricity0.0003454
Argument of Perigee81.2999
Mean Anonmoly215.8979
Mean Motion1.00272667
Decay Rate9.9E-07
L11 39034U 12075A 24159.97087400 .00000099 00000+0 00000+0 0 9996
L22 39034 0.0646 1.9067 0003454 81.2999 215.8979 1.00272667 41742



Live tracking and technical data element details for SKYNET 5D (NORAD 39034). SKYNET 5D can be tracked NOW for your location showing map with azimuth and elevation plus other details from your city location.







IsCatalogInMostPopularTable: catalog: 39034, numindb: 598
Update: records affected: 1



GetName: 39034 SKYNET 5D

Hit Count: updated at: Mon, 17 Jun 2024 22:49:20 GMT